Fort Wayne Police Department
Fort Wayne Police Department
Emergencies Call: 911
Non-Emergencies: (260) 427-1222
report drug house

Daily Activity Logs

Activity Log for June 23, 2014 Community Search

Incident Time Nature Address
14F080748 00:08:12 22N CHILD NEGLE 2100 AUTUMN LAKE PL
14F080746 00:08:19 30 TRAFFIC STOP 3900 OLD MILL RD
14F080747 00:08:39 48,35 5500 COLDWATER RD
14F080749 00:13:03 46 DOMESTIC 2700 PLAZA DR
14F080750 00:27:29 70 FIRE 4400 HOAGLAND AVE
14F080751 00:30:41 48 SUSPICIOUS 700 STATE BLVD E
14F080752 00:32:41 33,34 4100 HILLEGAS RD & COLISEUM BLVD W
14F080753 00:32:51 51 THEFT 5600 ST JOE RD
14F080754 00:35:49 22RC RECOVERY 2700 PAULDING RD E
14F080756 00:36:39 48 SUSPICIOUS 7500 DECATUR RD
14F080755 00:37:16 48,36 1000 HAMILTON AVE
14F080757 00:42:40 41,36 1100 STATE BLVD E & CRESCENT AVE
14F080760 00:43:13 46,96 700 OAKLAWN CT
14F080758 00:51:20 48,36 3400 CLINTON ST N
14F080759 00:51:21 20 PROBLEM UNK 2100 OTSEGO DR
14F080761 00:57:09 911 HANG UP 2500 BROADWAY
14F080762 01:02:11 43 DISTURBANCE 5200 WERLING DR
14F080763 01:03:30 23JO 11400 WESTWIND DR & CANDLEWOOD WAY
14F080764 01:17:34 43 DISTURBANCE 4200 CLINTON ST S
14F080765 01:26:06 51 THEFT 1000 TILLMAN RD E & GARY ST
14F080766 01:43:17 43 DISTURBANCE 4200 CLINTON ST S
14F080767 01:47:33 30 TRAFFIC STOP 100 JEFFERSON BLVD W & HARRISON ST
14F080768 02:00:44 40 ALARM 6300 LIMA RD
14F080769 02:00:45 48 SUSPICIOUS 2700 MANFORD ST
14F080770 02:02:50 40 ALARM 7000 OLD TRAIL RD
14F080771 02:03:31 62 PARTY ARMED 1300 FAYETTE DR
14F080772 02:18:45 911 HANG UP 800 RIDGEWOOD DR
14F080773 02:20:10 30 TRAFFIC STOP 3500 BROADWAY & BLUFFTON RD
14F080774 02:31:04 48 SUSPICIOUS 200 MAIN ST E
14F080775 02:36:26 40A AUDIBLE 5500 ILLINOIS RD
14F080776 02:36:30 51,35 5500 STATE BLVD E
14F080777 02:40:31 48,35 700 STATE BLVD E
14F080778 02:58:32 50IP BURG I/P 2200 ABBEY DR
14F080779 02:59:18 44 NUISANCE 600 FIFTH ST
14F080780 03:04:27 43 DISTURBANCE 500 HIGH ST
14F080781 03:07:15 40 ALARM 3100 OXFORD ST
14F080784 03:08:39 48 SUSPICIOUS 10400 COLDWATER RD
14F080782 03:10:49 43 DISTURBANCE 3900 SOUTHWAYNE AVE
14F080783 03:12:16 50IP BURG I/P 2200 ABBEY DR
14F080785 03:12:25 25HS HIT SKIP 7700 SUNDERLAND DR
14F080786 03:19:05 55 FIGHT 2400 JEFFERSON BLVD W
14F080787 03:27:06 23JO 800 OXFORD ST & SOUTHPARK DR
14F080788 03:39:35 41 MAN DOWN 2700 BROADWAY
14F080790 03:42:00 48 SUSPICIOUS 7800 ST JOE CENTER RD
14F080789 03:42:54 48,36 4400 SPATZ AVE
14F080791 03:54:52 14 WARRANT 6500 REED RD
14F080792 04:00:41 25,86 7800 SUNDERLAND DR
14F080793 04:14:04 30 TRAFFIC STOP 4100 ABOITE LAKE DR & ABOITE CENTE
14F080794 04:18:49 66V MENTAL VIOL 1100 VAN BUREN ST
14F080795 04:33:21 25,86 7800 HARRISBURG LN
14F080796 05:13:43 40A AUDIBLE 4300 WINSTON DR
14F080797 05:15:08 40L LISTENING 1600 NORTHLAND BLVD
14F080798 05:29:38 EMS 8600 BLUFFTON RD & AIRPORT EXPRESS
14F080799 05:30:35 40 ALARM 6300 WINCHESTER RD
14F080800 05:46:38 48 SUSPICIOUS 4100 HESSEN CASSEL RD & MCKINNIE A
14F080801 06:03:52 51,35 8200 BRIDGEWAY DR
14F080802 06:05:37 30 TRAFFIC STOP 500 WALLEN RD E & COLDWATER RD
14F080803 06:06:48 30 TRAFFIC STOP 1000 RUDISILL BLVD W & BEAVER AVE
14F080804 06:09:19 40A AUDIBLE 5900 COVINGTON RD
14F080805 06:19:19 16V PICKUP VID 00 MAIN ST E
14F080806 06:46:22 70 FIRE 1600 COLISEUM BLVD E
14F080807 06:49:51 45 NEIGHBORHOOD 9600 SHOREWOOD TRL
14F080808 06:54:26 22RN RUNAWAY 2500 ANTHONY BLVD S
14F080809 07:09:14 66 MENTALLY ILL 2200 RANDALLIA DR
14F080810 07:21:56 34 TRAFF HAZARD 6300 PAULDING RD E
14F080811 07:25:45 40A AUDIBLE 1700 EDGEWATER AVE
14F080812 07:43:48 25HS HIT SKIP 6300 ILLINOIS RD
14F080814 07:46:54 40A AUDIBLE 4000 MERCHANT RD
14F080813 07:47:54 48,36 3900 OLD MILL RD
14F080817 07:54:57 43 DISTURBANCE 6000 CHADDSFORD DR & DOWNINGTOWN D
14F080816 07:55:33 25 PD ACCIDENT 8200 JEFFERSON BLVD W & I 69 NB
14F080815 07:55:42 23,113 3400 ROBINWOOD DR
14F080818 08:00:34 51,35 4000 SAN PEDRO DR
14F080819 08:02:15 48 SUSPICIOUS 1100 MEDICAL PARK DR & CLINTON ST
14F080823 08:15:14 25HS HIT SKIP 3100 MCARTHUR DR
14F080821 08:15:19 40P PANIC ALARM 900 COLISEUM BLVD N
14F080820 08:15:30 30 TRAFFIC STOP 2100 SANDPOINT RD & BLUFFTON RD
14F080822 08:16:15 37 PARKING VIOL 3500 WEISSER PARK AVE
14F080824 08:20:08 30 TRAFFIC STOP 4300 LIMA RD & COLISEUM BLVD W
14F080825 08:27:17 51,35 4000 SAN PEDRO DR
14F080826 08:32:23 18 WORK TRAFFIC 600 GOSHEN AVE
14F080827 08:35:18 911 HANG UP 300 LEXINGTON AVE
14F080829 08:36:24 50 BURGLARY 4600 LAFAYETTE ESPLANADE
14F080828 08:37:32 51 THEFT 5300 COLDWATER RD
14F080833 08:42:02 63 CONTACT 2900 GREENBRIAR DR
14F080834 08:44:03 108 FOLLOWUP 2200 DUNKELBERG RD
14F080835 08:49:38 25 PD ACCIDENT 10100 ILLINOIS RD & SCOTT RD S
14F080836 08:54:21 102,TX THREATS 5800 RADCLIFFE DR
14F080838 09:02:44 63 CONTACT 4200 REED RD
14F080837 09:02:52 102 THREATS 2200 HANNA ST S
14F080839 09:04:57 40A AUDIBLE 400 WAYNE ST E
14F080840 09:09:33 63 CONTACT 4100 MAYBERRY ST
14F080841 09:10:01 46,96 7300 OLD TRAIL RD
14F080842 09:11:35 25 PD ACCIDENT 3900 HESSEN CASSEL RD
14F080843 09:16:03 911 HANG UP 5000 TRUEMPER WAY
14F080844 09:23:37 25 PD ACCIDENT 1000 COLISEUM BLVD E & PARNELL AVE
14F080845 09:25:09 48 SUSPICIOUS 1800 HOBSON RD
14F080848 09:25:14 911 HANG UP 2200 RUDISILL BLVD E
14F080846 09:26:21 129 7900 DECATUR RD
14F080850 09:27:37 46 DOMESTIC 8600 VICTORIA WOODS PL
14F080849 09:29:35 40A AUDIBLE 8900 DUNMORE LN
14F080852 09:30:59 25HS HIT SKIP 9500 SHOREWOOD TRL
14F080851 09:35:02 129 8300 DEER BROOK PL
14F080853 09:40:33 40 ALARM 4000 CLINTON ST N
14F080854 09:49:30 43 DISTURBANCE 4900 HARRISON ST S
14F080855 09:53:44 23,35 VAND VEH 3100 WELLS ST
14F080856 09:55:36 103 UNWANTED 1100 HARRISON ST S
14F080857 09:57:30 30 TRAFFIC STOP 4400 PARNELL AVE & CALIFORNIA RD E
14F080858 09:58:55 33,34 7300 ANTHONY BLVD S & TILLMAN RD E
14F080859 10:02:55 23,35 VAND VEH 700 HIGH ST
14F080861 10:09:55 40A AUDIBLE 2700 KENSINGTON BLVD
14F080860 10:10:47 23,35 VAND VEH 700 HIGH ST
14F080862 10:11:30 22N CHILD NEGLE 4300 ANTHONY WAYNE DR SW
14F080864 10:16:10 40A AUDIBLE 900 LIBRARY PLAZA
14F080863 10:17:13 HARASSMENT 1600 MAGNOLIA LN
14F080866 10:24:22 40P PANIC ALARM 200 PEQUEEN ST
14F080867 10:25:21 11C CAGE CAR 00 MAIN ST E
14F080868 10:29:12 33J LOCKED OUT 900 MONROE ST S
14F080869 10:31:11 50,ATTEMPTED 5400 CALHOUN ST S
14F080870 10:32:10 EMS 3300 IVY LEAGUE DR
14F080871 10:34:40 1 MEET 00 MAIN ST E
14F080873 10:39:09 18 WORK TRAFFIC 1400 POLK ST & OSAGE ST
14F080874 10:40:05 26 PI ACCIDENT 5800 COLDWATER RD & WASHINGTON CEN
14F080875 10:43:08 23 VANDALISM 1000 CANDLEWOOD WAY
14F080901 10:43:42 23 VANDALISM 3400 SHERMAN BLVD
14F080876 10:44:14 108 FOLLOWUP 1600 FAIRFAX AVE E
14F080879 10:48:00 911 HANG UP 1900 COLISEUM BLVD N
14F080878 10:48:34 46 DOMESTIC 1000 FRANKLIN AVE
14F080880 10:51:57 33J LOCKED OUT 7200 JEFFERSON BLVD W
14F080881 10:58:45 30 TRAFFIC STOP 3800 INDIANA AVE & RUDISILL BLVD W
14F080882 11:05:17 65T SUICIDE THR 3600 BROOKLYN AVE
14F080885 11:05:54 1 MEET 4200 ANTHONY BLVD S & MCKINNIE AVE
14F080883 11:06:23 46 DOMESTIC 3200 CLINTON ST N
14F080886 11:06:23 46,96 2200 RANDALLIA DR
14F080884 11:06:28 40A AUDIBLE 7300 ST JOE RD
14F080898 11:08:42 23 VANDALISM 3100 ELMHURST DR
14F080891 11:09:39 34 TRAFF HAZARD 30900 I 69 SB
14F080887 11:10:00 30 TRAFFIC STOP 900 MAPLE GROVE AVE E & GAYWOOD DR
14F080888 11:11:04 51 THEFT 700 PAULDING RD E
14F080889 11:11:36 25 PD ACCIDENT 3200 DUPONT RD E & I 69 NB
14F080890 11:12:34 43 DISTURBANCE 1700 BLUFFTON RD
14F080892 11:14:39 48,36 7600 PAULA PKWY
14F080895 11:19:49 22RC RECOVERY 2700 PAULDING RD E
14F080904 11:20:32 51 THEFT 4500 KENILWORTH ST
14F080894 11:21:04 25 PD ACCIDENT 31000 I 69 NB
14F080893 11:21:36 30 TRAFFIC STOP 2000 OXFORD ST
14F080896 11:22:33 48 SUSPICIOUS 6300 SOUTHCREST RD & KENT RD
14F080897 11:24:22 EMS 2200 RIEDMILLER AVE
14F080912 11:25:05 11C CAGE CAR 00 MAIN ST E
14F080899 11:25:40 46 DOMESTIC 1400 GREENE ST
14F080913 11:30:04 16,97 300 COLISEUM BLVD E
14F080902 11:32:44 26HS PI HITSKIP 2100 HOBSON RD
14F080903 11:36:23 23 VANDALISM 400 PAULDING RD W
14F080905 11:40:10 25HS HIT SKIP 5700 ST JOE RD
14F080907 11:43:37 911 HANG UP 6300 ILLINOIS RD
14F080906 11:43:48 72 FAIL TO PAY 6000 ST JOE CENTER RD
14F080908 11:45:40 23,35 VAND VEH 2900 DUPONT RD E
14F080909 11:50:54 48,36 2200 BOWSER AVE
14F080910 11:51:04 40A AUDIBLE 1000 OAK BRANCH CT
14F080911 11:55:18 38 LOST/STOLEN 2300 DREXEL AVE
14F080915 12:01:05 33J LOCKED OUT 200 BERRY ST E
14F080914 12:02:21 99 NARCOTICS 00 MAIN ST E
14F080916 12:02:59 46 DOMESTIC 2500 INWOOD DR
14F080918 12:07:59 41 MAN DOWN 1100 LAFAYETTE ST S & LEWIS ST E
14F080919 12:08:09 911 HANG UP 7000 COLDWATER RD
14F080930 12:08:15 17 MOTOR CHECK 46XX LIMA RD
14F080917 12:08:41 103 UNWANTED 2000 HOBSON RD
14F080936 12:14:28 99 NARCOTICS 6700 RAMBLEWOOD CT
14F080920 12:14:53 911 HANG UP 1200 CLINTON ST S
14F080921 12:16:16 HARASSMENT 1800 COLLEGE ST
14F080923 12:17:35 102 THREATS 2100 OAKLEY ST
14F080922 12:17:50 38 LOST/STOLEN 2900 THOMPSON AVE
14F080924 12:18:38 48 SUSPICIOUS 200 CLINTON ST S
14F080926 12:20:32 43 DISTURBANCE 3200 REED ST
14F080925 12:21:43 HARASSMENT 5100 MOUNT VERNON PARK DR
14F080927 12:23:17 27 RECKLESS DRI 6000 SOUTHBEND DR & GETZ RD
14F080928 12:25:59 48 SUSPICIOUS 200 CLINTON ST S
14F080929 12:26:51 50 BURGLARY 3800 CLERMONT AVE
14F080931 12:30:36 50IP BURG I/P 6200 MAYFAIR RD
14F080932 12:36:42 25 PD ACCIDENT 2600 SCOTT RD S & COVINGTON RD
14F080933 12:37:57 65T SUICIDE THR 3400 FELICIAN ST
14F080934 12:41:22 51 THEFT 3600 CALHOUN ST S
14F080935 12:42:17 911 HANG UP 6100 MONARCH DR
14F080937 12:51:06 911 HANG UP 1700 THOMPSON AVE
14F080938 12:52:51 63 CONTACT 1800 THICKET CT
14F080940 12:55:34 43 DISTURBANCE 100 TILLMAN RD E & CALHOUN ST S
14F080939 12:57:28 17 MOTOR CHECK 1300 DODGE AVE
14F080941 12:58:50 16 PICK UP ITEM 900 THIRD ST
14F080944 13:00:32 46 DOMESTIC 5600 WILKIE DR
14F080942 13:00:38 15 ASSIST 5500 MEIJER DR
14F080943 13:01:02 911 HANG UP 2100 STRATHMORE ST
14F080945 13:04:08 51IP 600 TILLWATER LN
14F080947 13:07:45 911 HANG UP 1100 WALLACE ST E
14F080949 13:11:23 25 PD ACCIDENT 8000 ABOITE CENTER RD & I 69 SB
14F080950 13:11:56 22N CHILD NEGLE 400 WAYNE ST E
14F080951 13:16:26 96 BATTERY 400 CALHOUN ST S
14F080955 13:18:52 911 HANG UP 3100 JEFFERSON BLVD W & LINDENWOOD
14F080952 13:19:26 62 PARTY ARMED 800 WAYNE ST W
14F080953 13:20:47 33,34 1200 MAPLECREST RD & LAKE AVE
14F080956 13:22:45 911 HANG UP 9500 YEARLING DR
14F080957 13:31:53 72 FAIL TO PAY 6300 STATE BLVD E
14F080958 13:34:22 103 UNWANTED 2400 HOBSON RD
14F080959 13:37:33 30 TRAFFIC STOP 4900 ILLINOIS RD
14F080998 13:38:31 48,35 1500 SPY RUN AVE
14F080960 13:44:02 51 THEFT 5300 COLDWATER RD
14F081010 13:49:42 46,96 200 SECOND ST
14F080961 13:53:17 1 MEET 12100 ERNST RD
14F080962 13:53:29 911 HANG UP 2900 EUCLID AVE
14F080963 13:56:23 23,35 VAND VEH 2800 ST LOUIS AVE
14F080964 14:00:43 911 HANG UP 1300 HILLEGAS RD S & JEFFERSON BLV
14F080966 14:05:25 22I JUV INVEST 3900 OLIVER ST
14F080965 14:06:49 30 TRAFFIC STOP 1300 HILLEGAS RD S & JEFFERSON BLV
14F080967 14:10:28 83 INFO REPORT 5400 ARCHWOOD LN
14F080969 14:12:36 15 ASSIST 7000 BLUFFTON RD
14F080971 14:13:14 63 CONTACT 200 MAIN ST E
14F080968 14:13:35 129 7300 BLUFFTON RD
14F080970 14:14:12 25 PD ACCIDENT 1800 BLUFFTON RD
14F080972 14:14:36 40I INTRUSION 4000 HESSEN CASSEL RD
14F080974 14:18:01 911 HANG UP 2900 ROUSSEAU AVE
14F080973 14:19:03 30 TRAFFIC STOP 100 JEFFERSON BLVD W & HARRISON ST
14F080975 14:19:16 911 HANG UP 2800 MILLBROOK DR
14F081000 14:20:52 23 VANDALISM 3900 ICE WAY
14F080978 14:22:54 39U UNAUTHORIZE 3600 TEMBERTON WAY
14F080977 14:25:00 51 THEFT 900 BUCHANAN ST
14F080980 14:25:40 17 MOTOR CHECK 2600 CURDES AVE
14F080979 14:27:00 25 PD ACCIDENT 1900 FOREST DOWNS DR
14F080982 14:30:46 46 DOMESTIC 600 TILLMAN RD E
14F080981 14:32:47 108 FOLLOWUP 00 MAIN ST E
14F080983 14:36:07 33,34 1700 PETTIT AVE E & ANTHONY BLVD S
14F080984 14:37:27 25 PD ACCIDENT 1300 WASHINGTON CENTER RD E
14F080986 14:39:57 43,62 2500 CORTLAND AVE
14F080985 14:39:59 43 DISTURBANCE 3400 WAYNE TRACE
14F080988 14:41:01 40A AUDIBLE 8000 PEPPERWOOD CT
14F081005 14:41:07 17 MOTOR CHECK 5100 SPEEDWAY DR
14F080995 14:42:09 51JO 3000 GOSHEN RD
14F080987 14:42:57 1 MEET 7600 COLD SPRINGS BLVD
14F080990 14:46:05 25 PD ACCIDENT 600 STATE BLVD W & GOSHEN AVE
14F080989 14:46:22 30 TRAFFIC STOP 4200 LAFAYETTE ST S & MCKINNIE AVE
14F080991 14:50:00 33,34 600 COLISEUM BLVD E
14F080992 14:52:36 EMS 6000 BLUFFTON RD
14F080993 14:55:42 15 ASSIST 200 PETTIT AVE E
14F080994 14:59:42 40A AUDIBLE 4500 STRATHDON DR
14F080999 15:08:41 48,35 2900 STANFORD AVE
14F080997 15:09:07 911 HANG UP 2000 BAYVIEW DR
14F080996 15:09:38 HARASSMENT 1400 RABUS DR
14F081002 15:14:49 40H HOLDUP ALRM 3300 CLINTON ST N
14F081003 15:15:33 30 TRAFFIC STOP 1800 ST JOE CENTER RD & CONCORDIA
14F081011 15:19:09 50 BURGLARY 300 KINNAIRD AVE
14F081004 15:22:27 40H HOLDUP ALRM 10100 ILLINOIS RD
14F081006 15:26:03 25,86 500 ANDERSON AVE
14F081008 15:26:27 25HS HIT SKIP 2100 CRESCENT AVE
14F081007 15:26:41 103 UNWANTED 100 BAKER ST W
14F081009 15:27:15 25 PD ACCIDENT 5200 ILLINOIS RD
14F081013 15:30:17 34 TRAFF HAZARD 1000 DUPONT RD W & OAKTREE RD
14F081012 15:31:08 51 THEFT 800 TENNESSEE AVE
14F081014 15:32:54 108 FOLLOWUP 3700 TRACE WAY
14F081015 15:34:30 129 10000 DAWSONS CREEK BLVD
14F081034 15:34:36 66 72 HOUR 7900 JEFFERSON BLVD W
14F081018 15:35:02 27 RECKLESS DRI 6600 ILLINOIS RD & I 69 SB
14F081017 15:35:06 46 DOMESTIC 7600 COLD SPRINGS BLVD
14F081016 15:35:18 48,36 600 CALHOUN ST S
14F081019 15:35:20 22I JUV INVEST 7900 JEFFERSON BLVD W
14F081020 15:36:11 25 PD ACCIDENT 4700 NEW HAVEN AVE & MEYER RD
14F081052 15:40:11 99 NARCOTICS 900 FRANCIS ST
14F081021 15:40:44 129 6900 BITTERSWEET DELLS CT
14F081023 15:40:59 48 SUSPICIOUS 300 MAIN ST E
14F081022 15:41:45 129 1300 FAWN DR
14F081024 15:41:45 1 MEET 3600 TRACE WAY
14F081025 15:43:17 911 HANG UP 1000 STATE BLVD W
14F081026 15:47:02 911 HANG UP 6700 ANTHONY BLVD S
14F081027 15:48:07 96JO 6900 ELZEY ST
14F081030 15:49:06 48 SUSPICIOUS 4700 TAMARACK DR & REED RD
14F081029 15:50:13 46,96 700 CREIGHTON AVE W
14F081032 15:50:51 51 THEFT 00 MAIN ST E
14F081028 15:51:08 30 TRAFFIC STOP 600 PAULDING RD E & HANNA ST S
14F081031 15:56:14 911 HANG UP 900 NORTHCREST SHOPPING CTR
14F081038 15:56:27 43,62 7000 OLD TRAIL RD
14F081033 15:59:02 911 HANG UP 10400 COLDWATER RD
14F081035 15:59:05 101 OPEN DOOR 1400 GREENE ST
14F081036 16:01:18 1 MEET 3400 SHERMAN BLVD
14F081037 16:04:31 30 TRAFFIC STOP 1400 BAXTER ST & HOLTON AVE
14F081039 16:09:07 30 TRAFFIC STOP 400 CLINTON ST S & SUPERIOR ST E
14F081040 16:09:15 40A AUDIBLE 2700 COLISEUM BLVD S
14F081041 16:12:00 51 THEFT 5300 HANNA ST S
14F081082 16:13:34 73 WALK AWAY 3600 HARRIS RD
14F081042 16:25:09 25 PD ACCIDENT 3700 WALDEN RUN & TRIER RD
14F081044 16:26:16 911 HANG UP 4900 ANTHONY BLVD S
14F081043 16:26:17 25 PD ACCIDENT 00 I 69 309 SB ON RAMP & US 30 W
14F081050 16:26:47 46 DOMESTIC 1000 FRANKLIN AVE
14F081045 16:27:25 911 HANG UP 3500 COLLEGE PARK BLVD N
14F081046 16:30:09 911 HANG UP 6300 LANGWOOD BLVD
14F081058 16:33:07 57 STRONG ARM 400 CALHOUN ST S
14F081049 16:36:15 48,36 6300 PINE MEADOWS LN
14F081047 16:36:54 911 HANG UP 3500 BASS RD
14F081048 16:37:53 30 TRAFFIC STOP 4300 HOLTON AVE & SENATE AVE
14F081069 16:42:21 39 STOLEN VEHIC 00 MAIN ST E
14F081051 16:43:28 51JO 1500 GOSHEN AVE
14F081054 16:44:06 22I JUV INVEST 3500 ELMCREST DR
14F081064 16:44:14 1 MEET 2300 GARDEN PARK DR
14F081053 16:44:29 103 UNWANTED 100 COLISEUM BLVD W
14F081061 16:44:36 66 MENTALLY ILL 3100 MCDONALD ST
14F081055 16:49:35 51,35 3200 INWOOD DR
14F081056 16:52:31 17 MOTOR CHECK 3800 SMITH ST
14F081057 16:53:16 911 HANG UP 3100 DUPONT RD E & I 69 SB
14F081062 16:57:09 50 BURGLARY 2800 EUCLID AVE
14F081059 16:59:03 25 PD ACCIDENT 500 BERRY ST W & FULTON ST
14F081060 17:00:17 40A AUDIBLE 300 LEY RD
14F081063 17:04:22 47 REMOVE ITEMS 8200 BRIDGEWAY LN
14F081065 17:12:06 63 CONTACT 5300 COLDWATER RD
14F081067 17:13:02 911 HANG UP 3200 ANTHONY BLVD S
14F081066 17:13:13 1 MEET 1900 CALHOUN ST S & WILLIAMS ST E
14F081068 17:15:04 40A AUDIBLE 1700 LEGOMA DR
14F081070 17:21:08 33J LOCKED OUT 4000 MERCHANT RD
14F081071 17:21:29 103 UNWANTED 1900 FOX POINT TRL
14F081072 17:23:24 48 SUSPICIOUS 700 DEWALD ST W
14F081074 17:27:22 44FW 400 BASS ST
14F081091 17:28:13 50 BURGLARY 7400 SAGEPORT PL
14F081073 17:35:39 44FW 2700 PLAZA DR
14F081075 17:35:44 48 SUSPICIOUS 6800 JEFFERSON BLVD W
14F081076 17:38:28 46,96 1500 WALLEN RD W
14F081078 17:39:36 911 HANG UP 1000 DEARBORN ST
14F081077 17:40:12 129 1800 WOOD MOOR DR
14F081081 17:41:29 17 MOTOR CHECK 6500 HILLSIDE OAKS DR
14F081079 17:43:30 HARASSMENT 900 MADISON ST
14F081080 17:43:48 38 LOST/STOLEN 2200 POINT WEST DR
14F081084 17:54:38 40A AUDIBLE 4600 HILLEGAS RD
14F081083 17:55:26 40A AUDIBLE 2300 MAIN ST W
14F081089 17:57:10 66 MENTALLY ILL 3700 WASHINGTON BLVD E
14F081087 17:58:03 25HS HIT SKIP 6200 ILLINOIS RD & MAGNAVOX WAY
14F081086 17:58:29 43 DISTURBANCE 900 HAMILTON AVE
14F081085 17:58:59 51 THEFT 800 RIDGEWOOD DR
14F081088 18:00:55 40 ALARM 800 MILDRED AVE
14F081090 18:03:07 63 CONTACT 7000 BLUFFTON RD
14F081092 18:08:25 33,34 2400 GOSHEN RD & INDEPENDENCE DR
14F081098 18:08:27 34 TRAFF HAZARD 2700 STANFORD AVE
14F081093 18:11:55 25 PD ACCIDENT 2500 INDEPENDENCE DR
14F081094 18:13:03 25 PD ACCIDENT 300 STATE BLVD E & SPY RUN AVE
14F081095 18:15:55 33,34 3500 ANTHONY BLVD N & ST JOE RIVER
14F081096 18:21:06 51,35 1100 RUNNION AVE
14F081097 18:22:57 911 HANG UP 3600 CENTRAL DR
14F081099 18:25:02 103 UNWANTED 1700 REED RD
14F081100 18:31:37 96JO 100 JEFFERSON BLVD E & CALHOUN ST
14F081102 18:33:02 33,34 1700 RANDALLIA DR & NEVADA AVE
14F081101 18:36:17 911 HANG UP 1800 GRISWOLD DR
14F081110 18:39:41 50 BURGLARY 2300 FLORIDA DR
14F081105 18:39:54 911 HANG UP 7900 JEFFERSON BLVD W
14F081103 18:40:17 46,96 2200 DUNKELBERG RD
14F081104 18:40:38 EMS 3100 WELLS ST
14F081106 18:41:13 89 BOMB THREAT 100 CREIGHTON AVE E
14F081107 18:43:25 40H HOLDUP ALRM 1800 MAIN ST W
14F081109 18:45:54 43 DISTURBANCE 1700 APPLE GLEN BLVD
14F081108 18:46:12 911 HANG UP 3400 ROBINWOOD DR
14F081111 18:47:08 50 BURGLARY 6500 BRISTOL RD
14F081115 18:48:52 25HS HIT SKIP 200 THIRD ST
14F081112 18:56:52 48 SUSPICIOUS 300 SUPERIOR ST W
14F081113 18:57:57 911 HANG UP 2800 ASHCROFT DR
14F081114 18:58:53 25HS HIT SKIP 700 TENNESSEE AVE
14F081119 19:02:56 14S SERVING WAR 1500 CASS ST
14F081117 19:03:35 911 HANG UP 6000 CALICO CT
14F081116 19:03:48 58 SHOOTING 700 PONTIAC ST E & WEISSER PARK AV
14F081118 19:04:55 62 PARTY ARMED 3200 FRUEHAUF DR
14F081123 19:05:35 46 DOMESTIC 4600 SPATZ AVE
14F081121 19:13:34 28 DUI 4000 LAKE AVE & COLISEUM BLVD N
14F081120 19:14:19 43 DISTURBANCE 1400 HARRISON ST N
14F081122 19:14:23 63 CONTACT 10300 COLDWATER RD & DUPONT RD E
14F081124 19:19:04 40I INTRUSION 1400 DUPONT RD W
14F081125 19:20:48 46,96 2300 ABBEY DR
14F081126 19:23:53 ATL 500 JEFFERSON BLVD W
14F081139 19:24:14 1 MEET 3400 COLISEUM BLVD W
14F081138 19:24:55 102,TX THREATS 4300 ROSEVIEW RD
14F081127 19:26:20 101 OPEN DOOR 1100 NORTHLAWN DR
14F081128 19:28:43 66 MENTALLY ILL 3800 SHANNON DR
14F081131 19:34:01 911 HANG UP 6800 WRANGLER CT
14F081129 19:34:08 103 UNWANTED 1400 WELLS ST
14F081130 19:35:43 30 TRAFFIC STOP 1700 DUPONT RD W & LIMA RD
14F081132 19:37:09 40A AUDIBLE 2100 HANNA ST S
14F081133 19:37:45 40A AUDIBLE 2700 MAPLECREST RD
14F081134 19:40:59 911 HANG UP 500 JEFFERSON BLVD E
14F081135 19:42:10 28 DUI 31500 I 69 SB
14F081136 19:47:54 24 MISSING PERS 3600 HARRIS RD
14F081137 19:48:30 23 VANDALISM 9500 TALLOW DR
14F081140 19:53:04 43 DISTURBANCE 300 BRANDRIFF ST
14F081162 19:53:07 66 72 HOUR 7100 HICKORY CREEK DR
14F081141 19:53:54 911 HANG UP 4000 HANNA ST S
14F081142 19:55:34 40A AUDIBLE 8200 CARDINAL CT
14F081143 19:55:41 23JO 2200 RANDALLIA DR
14F081148 19:59:53 101 OPEN DOOR 1400 VERMONT AVE
14F081147 20:01:14 34 TRAFF HAZARD 31300 I 69 SB
14F081144 20:01:40 51 THEFT 3400 HARVESTER AVE
14F081146 20:04:02 EMS 3800 SHANNON DR
14F081145 20:04:19 23 VANDALISM 3300 SOUTHWAYNE AVE & KINSMOOR AVE
14F081149 20:08:32 15 ASSIST 3200 ADDISON AVE
14F081150 20:11:27 23,35 VAND VEH 1900 BROADWAY & TAYLOR ST
14F081153 20:11:27 23JO 4800 TACOMA AVE & PETTIT AVE W
14F081152 20:12:39 66V MENTAL VIOL 400 JEFFERSON BLVD E & CLAY ST
14F081151 20:13:22 63Z ZACH CHECK 2600 SHERMAN BLVD
14F081154 20:18:36 51,35 1400 VERMONT AVE
14F081155 20:22:29 40 ALARM 1800 CALHOUN ST S
14F081156 20:23:31 15,85 ASST AT O 3000 CLINTON ST S
14F081157 20:24:17 40A AUDIBLE 2500 LAKE AVE
14F081158 20:24:52 43 DISTURBANCE 3300 LAFAYETTE ST S
14F081159 20:25:02 22I JUV INVEST 6400 BITTERSWEET DR
14F081161 20:28:16 23JO 4200 ANTHONY BLVD S & MCKINNIE AVE
14F081160 20:29:12 30 TRAFFIC STOP 1400 CLINTON ST N & FOURTH ST E
14F081164 20:34:45 911 HANG UP 4500 SECRETARY DR
14F081163 20:35:02 40A AUDIBLE 1600 WABASH AVE
14F081174 20:36:32 23JO 2800 BROADWAY & HOME AVE
14F081165 20:38:22 51 THEFT 1700 DUPONT RD E
14F081166 20:42:39 58 SHOOTING 00
14F081172 20:42:59 34 TRAFF HAZARD 6000 ILLINOIS RD & GETZ RD
14F081167 20:45:08 911 HANG UP 4500 KINGSBURY DR
14F081168 20:47:11 48,36 1400 LOFTON WAY
14F081169 20:47:46 911 HANG UP 3700 CONGRESS AVE
14F081170 20:49:02 911 HANG UP 1000 LAFORT ST
14F081171 20:51:43 80 CIVIL INVEST 2700 REYNOLDS ST
14F081173 20:52:24 43 DISTURBANCE 2400 CORTLAND AVE
14F081178 20:54:11 66 72 HOUR 2200 RANDALLIA DR
14F081175 20:54:55 103 UNWANTED 1400 COLISEUM BLVD N
14F081202 20:55:40 56 MOLESTING 3400 HOBSON RD
14F081176 20:57:23 102 THREATS 2900 EUCLID AVE
14F081177 20:59:25 101 OPEN DOOR 100 ESMOND ST
14F081196 20:59:40 108 FOLLOWUP 2300 FLORIDA DR
14F081179 21:00:47 44FW 4100 BUELL DR
14F081180 21:06:14 103 UNWANTED 2300 SANTA ROSA DR
14F081181 21:09:07 911 HANG UP 200 MARCIEL DR
14F081182 21:13:15 40A AUDIBLE 4300 SMITH ST
14F081183 21:14:23 96JO 1700 HOBSON RD
14F081184 21:18:37 23 VANDALISM 500 CREIGHTON AVE W & FAIRFIELD AV
14F081185 21:22:26 46 DOMESTIC 1600 ELMROW DR
14F081186 21:25:17 911 HANG UP 4700 BOWSER AVE
14F081187 21:26:13 44FW 800 SPRING ST & SHERMAN BLVD
14F081188 21:30:14 911 HANG UP 2800 NORTHGATE BLVD
14F081189 21:31:50 65A SUICIDE ATT 8000 SILVER SPRINGS PL
14F081192 21:32:02 34 TRAFF HAZARD 31200 I 69 SB
14F081194 21:35:37 30 TRAFFIC STOP 1600 ILLINOIS RD S & JEFFERSON BLV
14F081191 21:37:43 1 MEET 800 PUTNAM ST
14F081193 21:40:03 113 SHOTS FIRED 3000 LAFAYETTE ST S & WILDWOOD AVE
14F081190 21:40:11 30 TRAFFIC STOP 5000 FAIRFIELD AVE & ROXBURY CT
14F081198 21:43:46 911 HANG UP 9800 COLDWATER RD
14F081197 21:44:08 103 UNWANTED 2100 BROADWAY
14F081221 21:45:02 63 CONTACT 1200 ELM ST
14F081195 21:45:04 43 DISTURBANCE 1700 TRINITY BLVD & STANFORD AVE
14F081199 21:49:58 30 TRAFFIC STOP 1900 WASHINGTON BLVD E & GRANT AVE
14F081201 21:50:29 103 UNWANTED 2200 WAYNE TRACE E
14F081200 21:50:56 48 SUSPICIOUS 2500 JOHN ST
14F081203 21:57:37 43 DISTURBANCE 1400 SUNSHINE AVE
14F081210 22:00:39 102,TX THREATS 200 LEITH ST W
14F081207 22:01:10 48,35 2200 SHERMAN BLVD
14F081204 22:04:58 43 DISTURBANCE 900 WASHINGTON BLVD E
14F081205 22:05:24 66 MENTALLY ILL 3700 SPRUCE DR
14F081208 22:08:10 63 CONTACT 4900 LIMA RD
14F081209 22:11:36 113 SHOTS FIRED 800 GOSHEN AVE
14F081211 22:18:27 48 SUSPICIOUS 5300 DEROME DR E
14F081222 22:19:55 102 THREATS 2200 HARRISON ST S
14F081212 22:22:12 48,36 1300 SPRING ST
14F081213 22:23:21 48 SUSPICIOUS 10000 JEFFERSON WAY
14F081214 22:27:06 48,36 3900 TAYLOR ST
14F081215 22:31:26 20 PROBLEM UNK 600 FRY ST
14F081217 22:33:58 43 DISTURBANCE 7200 WINNEBAGO DR
14F081216 22:34:14 30 TRAFFIC STOP 500 WASHINGTON BLVD E & MONROE ST
14F081218 22:35:02 911 HANG UP 6100 HANNA ST S
14F081219 22:37:37 40A AUDIBLE 100 LEXINGTON AVE
14F081220 22:40:41 911 HANG UP 3100 CENTRAL DR
14F081223 22:59:40 911 HANG UP 2600 BROOKLYN AVE
14F081225 23:00:57 46,96 1200 NUTTMAN AVE
14F081226 23:04:40 67 INDECENT 1000 WASHINGTON CENTER RD W
14F081224 23:05:51 911 HANG UP 500 COLISEUM BLVD W
14F081231 23:06:30 911 HANG UP 400 WILDWOOD AVE E
14F081228 23:06:46 911 HANG UP 6900 ANTHONY BLVD S
14F081229 23:07:33 64 NOT SEEN 3000 CENTRAL DR
14F081227 23:08:39 30 TRAFFIC STOP 4400 BLUM DR & STELLHORN RD
14F081232 23:09:42 50 BURGLARY 400 PURSLEY DR
14F081230 23:11:11 16V PICKUP VID 00 MAIN ST E
14F081233 23:11:58 43 DISTURBANCE 5700 COVENTRY LN
14F081235 23:14:43 44LM 2000 BARR ST S & BUTLER ST E
14F081234 23:18:02 911 HANG UP 6200 KENT RD
14F081236 23:21:42 46 DOMESTIC 2700 ALEXANDER ST
14F081239 23:22:12 43 DISTURBANCE 2100 NELSON ST
14F081237 23:23:09 48 SUSPICIOUS 2700 STATE BLVD E & BEACON ST
14F081238 23:24:56 108 FOLLOWUP 2900 WESTBROOK DR
14F081241 23:25:02 102,TX THREATS 3400 ROLSTON ST
14F081240 23:27:35 30 TRAFFIC STOP 3200 WELLS ST & FRANKE PARK DR
14F081242 23:29:25 30 TRAFFIC STOP 3500 ARDMORE AVE & NUTTMAN AVE
14F081243 23:31:42 44LM 1200 MAIN ST W
14F081253 23:36:42 42 INTOX PERSON 7300 LINDA DR
14F081244 23:39:38 30 TRAFFIC STOP 2200 TILLMAN RD E
14F081245 23:40:28 51 THEFT 2000 HARRISON ST S
14F081246 23:42:12 58 SHOOTING 6700 NORTHRIVER RD
14F081249 23:46:59 39R STOLEN RECO 2100 STRATHMORE ST
14F081247 23:52:56 48,35 10300 ABOITE CENTER RD
14F081248 23:55:28 33,34 2000 I 469 SB
14F081250 23:57:15 40A AUDIBLE 3200 CLINTON ST N
14F081251 23:57:59 42 INTOX PERSON 7500 BLUFFTON RD
Amber Alert

All-America City